Time,TemperatureF,DewpointF,PressureIn,WindDirection,WindDirectionDegrees,WindSpeedMPH,WindSpeedGustMPH,Humidity,HourlyPrecipIn,Conditions,Clouds,dailyrainin,SoftwareType,DateUTC
2013-02-13 00:01:00,42.0,40.0,29.85,ENE,57,0.0,-999.0,91,-99.99,,,-99.99,,2013-02-13 05:01:00,
2013-02-13 00:11:00,42.0,40.0,29.83,ENE,57,0.0,-999.0,91,-99.99,,,-99.99,,2013-02-13 05:11:00,
2013-02-13 00:22:00,42.0,40.0,29.83,ENE,57,0.0,-999.0,91,-99.99,,,-99.99,,2013-02-13 05:22:00,
2013-02-13 00:32:00,42.0,40.0,29.83,ENE,57,0.0,-999.0,91,-99.99,,,-99.99,,2013-02-13 05:32:00,
2013-02-13 00:42:00,42.0,40.0,29.83,ENE,57,0.0,-999.0,91,-99.99,,,-99.99,,2013-02-13 05:42:00,
2013-02-13 00:52:00,42.0,40.0,29.83,ENE,57,0.0,-999.0,91,-99.99,,,-99.99,,2013-02-13 05:52:00,
2013-02-13 01:02:00,42.0,40.0,29.82,ENE,57,0.0,-999.0,91,-99.99,,,-99.99,,2013-02-13 06:02:00,
2013-02-13 01:11:00,42.0,40.0,29.80,ENE,57,0.0,-999.0,91,-99.99,,,-99.99,,2013-02-13 06:11:00,
2013-02-13 01:21:00,42.0,40.0,29.80,ENE,57,0.0,-999.0,91,-99.99,,,-99.99,,2013-02-13 06:21:00,
2013-02-13 01:32:00,42.0,40.0,29.81,ENE,57,0.0,-999.0,92,-99.99,,,-99.99,,2013-02-13 06:32:00,
2013-02-13 01:42:00,42.0,40.0,29.80,ENE,57,0.0,-999.0,92,-99.99,,,-99.99,,2013-02-13 06:42:00,
2013-02-13 01:52:00,42.0,40.0,29.80,ENE,57,0.0,-999.0,92,-99.99,,,-99.99,,2013-02-13 06:52:00,
2013-02-13 02:02:00,42.0,40.0,29.80,ENE,57,0.0,-999.0,92,-99.99,,,-99.99,,2013-02-13 07:02:00,
2013-02-13 02:11:00,42.0,40.0,29.79,ENE,57,0.0,-999.0,92,-99.99,,,-99.99,,2013-02-13 07:11:00,
2013-02-13 02:22:00,42.0,40.0,29.79,ENE,57,0.0,-999.0,92,-99.99,,,-99.99,,2013-02-13 07:22:00,
2013-02-13 02:32:00,42.0,40.0,29.79,ENE,57,0.0,-999.0,92,-99.99,,,-99.99,,2013-02-13 07:32:00,
2013-02-13 02:42:00,42.0,40.0,29.78,ENE,57,0.0,-999.0,92,-99.99,,,-99.99,,2013-02-13 07:42:00,
2013-02-13 02:51:00,42.0,40.0,29.78,ENE,57,0.0,-999.0,92,-99.99,,,-99.99,,2013-02-13 07:51:00,
2013-02-13 03:01:00,42.0,40.0,29.77,ENE,57,0.0,-999.0,93,-99.99,,,-99.99,,2013-02-13 08:01:00,
2013-02-13 03:11:00,42.0,40.0,29.76,ENE,57,0.0,-999.0,93,-99.99,,,-99.99,,2013-02-13 08:11:00,
2013-02-13 03:21:00,42.0,40.0,29.76,ENE,57,0.0,-999.0,93,-99.99,,,-99.99,,2013-02-13 08:21:00,
2013-02-13 03:32:00,42.0,40.0,29.76,ENE,57,0.0,-999.0,93,-99.99,,,-99.99,,2013-02-13 08:32:00,
2013-02-13 03:43:00,42.0,40.0,29.76,ENE,57,0.0,-999.0,93,-99.99,,,-99.99,,2013-02-13 08:43:00,
2013-02-13 03:52:00,42.0,40.0,29.75,ENE,57,0.0,-999.0,93,-99.99,,,-99.99,,2013-02-13 08:52:00,
2013-02-13 04:01:00,42.0,40.0,29.75,ENE,57,0.0,-999.0,93,-99.99,,,-99.99,,2013-02-13 09:01:00,
2013-02-13 04:11:00,42.0,40.0,29.75,ENE,57,0.0,-999.0,93,-99.99,,,-99.99,,2013-02-13 09:11:00,
2013-02-13 04:21:00,42.0,40.0,29.74,ENE,57,0.0,-999.0,93,-99.99,,,-99.99,,2013-02-13 09:21:00,
2013-02-13 04:31:00,42.0,40.0,29.72,ENE,57,0.0,-999.0,93,-99.99,,,-99.99,,2013-02-13 09:31:00,
2013-02-13 04:42:00,42.0,40.0,29.72,ENE,57,0.0,-999.0,93,-99.99,,,-99.99,,2013-02-13 09:42:00,
2013-02-13 04:52:00,42.0,40.0,29.72,ENE,57,0.0,-999.0,93,-99.99,,,-99.99,,2013-02-13 09:52:00,
2013-02-13 05:01:00,42.0,40.0,29.70,ENE,57,0.0,-999.0,93,-99.99,,,-99.99,,2013-02-13 10:01:00,
2013-02-13 05:11:00,42.0,40.0,29.69,ENE,57,0.0,-999.0,93,-99.99,,,-99.99,,2013-02-13 10:11:00,
2013-02-13 05:21:00,42.0,40.0,29.69,ENE,57,0.0,-999.0,93,-99.99,,,-99.99,,2013-02-13 10:21:00,
2013-02-13 05:32:00,42.0,40.0,29.69,ENE,57,0.0,-999.0,93,-99.99,,,-99.99,,2013-02-13 10:32:00,
2013-02-13 05:42:00,42.0,40.0,29.68,ENE,57,0.0,-999.0,93,-99.99,,,-99.99,,2013-02-13 10:42:00,
2013-02-13 05:51:00,42.0,40.0,29.68,ENE,57,0.0,-999.0,93,-99.99,,,-99.99,,2013-02-13 10:51:00,
2013-02-13 06:01:00,42.0,40.0,29.68,ENE,57,0.0,-999.0,93,-99.99,,,-99.99,,2013-02-13 11:01:00,
2013-02-13 06:11:00,42.0,40.0,29.68,ENE,57,0.0,-999.0,93,-99.99,,,-99.99,,2013-02-13 11:11:00,
2013-02-13 06:22:00,42.0,40.0,29.68,ENE,57,0.0,-999.0,93,-99.99,,,-99.99,,2013-02-13 11:22:00,
2013-02-13 06:32:00,42.0,40.0,29.69,ENE,57,0.0,-999.0,94,-99.99,,,-99.99,,2013-02-13 11:32:00,
2013-02-13 06:42:00,42.0,40.0,29.69,ENE,57,0.0,-999.0,94,-99.99,,,-99.99,,2013-02-13 11:42:00,
2013-02-13 06:52:00,42.0,40.0,29.69,ENE,57,0.0,-999.0,94,-99.99,,,-99.99,,2013-02-13 11:52:00,
2013-02-13 07:02:00,42.0,40.0,29.70,NE,56,0.0,-999.0,94,-99.99,,,-99.99,,2013-02-13 12:02:00,
2013-02-13 07:11:00,42.0,40.0,29.70,ENE,57,0.0,-999.0,94,-99.99,,,-99.99,,2013-02-13 12:11:00,
2013-02-13 07:22:00,42.0,40.0,29.70,ENE,57,0.0,-999.0,94,-99.99,,,-99.99,,2013-02-13 12:22:00,
2013-02-13 07:32:00,42.0,40.0,29.68,ENE,57,0.0,-999.0,94,-99.99,,,-99.99,,2013-02-13 12:32:00,
2013-02-13 07:42:00,42.0,40.0,29.70,ENE,57,0.0,-999.0,94,-99.99,,,-99.99,,2013-02-13 12:42:00,
2013-02-13 07:52:00,42.0,40.0,29.70,ENE,57,0.0,-999.0,94,-99.99,,,-99.99,,2013-02-13 12:52:00,
2013-02-13 08:02:00,42.0,40.0,29.70,ENE,57,0.0,-999.0,94,-99.99,,,-99.99,,2013-02-13 13:02:00,
2013-02-13 08:11:00,42.0,40.0,29.70,ENE,57,0.0,-999.0,94,-99.99,,,-99.99,,2013-02-13 13:11:00,
2013-02-13 08:21:00,42.0,40.0,29.70,ENE,57,0.0,-999.0,94,-99.99,,,-99.99,,2013-02-13 13:21:00,
2013-02-13 08:32:00,42.0,40.0,29.70,ENE,57,0.0,-999.0,94,-99.99,,,-99.99,,2013-02-13 13:32:00,
2013-02-13 08:42:00,42.0,40.0,29.70,ENE,57,0.0,-999.0,94,-99.99,,,-99.99,,2013-02-13 13:42:00,
2013-02-13 08:52:00,42.0,40.0,29.70,ENE,57,0.0,-999.0,94,-99.99,,,-99.99,,2013-02-13 13:52:00,
2013-02-13 09:01:00,42.0,40.0,29.70,NE,54,0.0,-999.0,94,-99.99,,,-99.99,,2013-02-13 14:01:00,
2013-02-13 09:11:00,42.0,40.0,29.71,NE,54,0.0,-999.0,94,-99.99,,,-99.99,,2013-02-13 14:11:00,
2013-02-13 09:21:00,42.0,40.0,29.71,NE,54,0.0,-999.0,94,-99.99,,,-99.99,,2013-02-13 14:21:00,
2013-02-13 09:32:00,43.0,42.0,29.71,ENE,57,1.0,-999.0,95,-99.99,,,-99.99,,2013-02-13 14:32:00,
2013-02-13 09:42:00,43.0,42.0,29.70,ESE,118,1.0,-999.0,95,-99.99,,,-99.99,,2013-02-13 14:42:00,
2013-02-13 09:52:00,43.0,42.0,29.70,ESE,118,1.0,-999.0,95,-99.99,,,-99.99,,2013-02-13 14:52:00,
2013-02-13 10:01:00,43.0,42.0,29.70,SW,228,1.0,-999.0,95,-99.99,,,-99.99,,2013-02-13 15:01:00,
2013-02-13 10:11:00,43.0,42.0,29.70,West,272,1.0,-999.0,95,-99.99,,,-99.99,,2013-02-13 15:11:00,
2013-02-13 10:21:00,43.0,42.0,29.70,West,272,1.0,-999.0,95,-99.99,,,-99.99,,2013-02-13 15:21:00,
2013-02-13 10:32:00,44.0,43.0,29.70,SW,217,1.0,-999.0,95,-99.99,,,-99.99,,2013-02-13 15:32:00,
2013-02-13 10:42:00,44.0,43.0,29.70,SW,217,1.0,-999.0,95,-99.99,,,-99.99,,2013-02-13 15:42:00,
2013-02-13 10:52:00,44.0,43.0,29.70,West,267,1.0,-999.0,95,-99.99,,,-99.99,,2013-02-13 15:52:00,
2013-02-13 11:01:00,44.0,43.0,29.71,South,181,2.0,-999.0,95,-99.99,,,-99.99,,2013-02-13 16:01:00,
2013-02-13 11:11:00,45.0,44.0,29.71,SW,222,5.0,-999.0,96,-99.99,,,-99.99,,2013-02-13 16:11:00,
2013-02-13 11:21:00,45.0,44.0,29.71,SW,222,5.0,-999.0,96,-99.99,,,-99.99,,2013-02-13 16:21:00,
2013-02-13 11:32:00,46.0,45.0,29.71,SSW,203,5.0,-999.0,96,-99.99,,,-99.99,,2013-02-13 16:32:00,
2013-02-13 11:42:00,46.0,45.0,29.71,SSW,203,5.0,-999.0,96,-99.99,,,-99.99,,2013-02-13 16:42:00,
2013-02-13 11:52:00,46.0,45.0,29.71,WSW,238,5.0,-999.0,96,-99.99,,,-99.99,,2013-02-13 16:52:00,
2013-02-13 12:01:00,47.0,46.0,29.70,SSW,205,5.0,-999.0,96,-99.99,,,-99.99,,2013-02-13 17:01:00,
2013-02-13 12:11:00,47.0,46.0,29.70,SW,220,5.0,-999.0,96,-99.99,,,-99.99,,2013-02-13 17:11:00,
2013-02-13 12:21:00,47.0,46.0,29.70,SW,220,5.0,-999.0,96,-99.99,,,-99.99,,2013-02-13 17:21:00,
2013-02-13 12:32:00,46.0,45.0,29.71,SW,234,3.0,-999.0,96,-99.99,,,-99.99,,2013-02-13 17:32:00,
2013-02-13 12:42:00,46.0,45.0,29.71,SW,234,3.0,-999.0,96,-99.99,,,-99.99,,2013-02-13 17:42:00,
2013-02-13 12:52:00,46.0,45.0,29.71,WSW,242,5.0,-999.0,96,-99.99,,,-99.99,,2013-02-13 17:52:00,
2013-02-13 13:02:00,46.0,45.0,29.72,West,264,6.0,-999.0,96,-99.99,,,-99.99,,2013-02-13 18:02:00,
2013-02-13 13:11:00,46.0,45.0,29.72,SW,217,5.0,-999.0,95,-99.99,,,-99.99,,2013-02-13 18:11:00,
2013-02-13 13:23:00,46.0,45.0,29.72,SW,217,5.0,-999.0,95,-99.99,,,-99.99,,2013-02-13 18:23:00,
2013-02-13 13:32:00,46.0,45.0,29.73,WSW,242,4.0,-999.0,95,-99.99,,,-99.99,,2013-02-13 18:32:00,
2013-02-13 13:42:00,46.0,45.0,29.73,WSW,242,4.0,-999.0,95,-99.99,,,-99.99,,2013-02-13 18:42:00,
2013-02-13 13:52:00,46.0,45.0,29.73,West,273,3.0,-999.0,95,-99.99,,,-99.99,,2013-02-13 18:52:00,
2013-02-13 14:01:00,46.0,44.0,29.74,WSW,243,4.0,-999.0,94,-99.99,,,-99.99,,2013-02-13 19:01:00,
2013-02-13 14:11:00,45.0,43.0,29.74,SW,231,3.0,-999.0,94,-99.99,,,-99.99,,2013-02-13 19:11:00,
2013-02-13 14:21:00,45.0,43.0,29.74,SW,231,3.0,-999.0,94,-99.99,,,-99.99,,2013-02-13 19:21:00,
2013-02-13 14:32:00,45.0,43.0,29.74,WSW,242,3.0,-999.0,93,-99.99,,,-99.99,,2013-02-13 19:32:00,
2013-02-13 14:42:00,45.0,43.0,29.74,WSW,242,3.0,-999.0,93,-99.99,,,-99.99,,2013-02-13 19:42:00,
2013-02-13 14:51:00,45.0,43.0,29.74,West,273,4.0,-999.0,93,-99.99,,,-99.99,,2013-02-13 19:51:00,
2013-02-13 15:02:00,46.0,44.0,29.76,West,260,1.0,-999.0,92,-99.99,,,-99.99,,2013-02-13 20:02:00,
2013-02-13 15:11:00,46.0,43.0,29.76,WNW,298,4.0,-999.0,90,-99.99,,,-99.99,,2013-02-13 20:11:00,
2013-02-13 15:21:00,46.0,43.0,29.76,WNW,298,4.0,-999.0,90,-99.99,,,-99.99,,2013-02-13 20:21:00,
2013-02-13 15:32:00,45.0,41.0,29.78,West,271,3.0,-999.0,87,-99.99,,,-99.99,,2013-02-13 20:32:00,
2013-02-13 15:42:00,45.0,41.0,29.79,NW,315,2.0,-999.0,86,-99.99,,,-99.99,,2013-02-13 20:42:00,
2013-02-13 15:52:00,45.0,41.0,29.79,NW,315,2.0,-999.0,86,-99.99,,,-99.99,,2013-02-13 20:52:00,
2013-02-13 16:01:00,44.0,40.0,29.80,NW,323,2.0,-999.0,85,-99.99,,,-99.99,,2013-02-13 21:01:00,
2013-02-13 16:11:00,44.0,40.0,29.80,NW,323,2.0,-999.0,85,-99.99,,,-99.99,,2013-02-13 21:11:00,
2013-02-13 16:21:00,44.0,39.0,29.81,WNW,282,1.0,-999.0,84,-99.99,,,-99.99,,2013-02-13 21:21:00,
2013-02-13 16:31:00,44.0,39.0,29.83,WNW,282,0.0,-999.0,84,-99.99,,,-99.99,,2013-02-13 21:31:00,
2013-02-13 16:42:00,43.0,38.0,29.84,NW,309,0.0,-999.0,84,-99.99,,,-99.99,,2013-02-13 21:42:00,
2013-02-13 16:52:00,43.0,38.0,29.84,NW,309,0.0,-999.0,84,-99.99,,,-99.99,,2013-02-13 21:52:00,
2013-02-13 17:02:00,43.0,38.0,29.85,NNW,335,3.0,-999.0,83,-99.99,,,-99.99,,2013-02-13 22:02:00,
2013-02-13 17:11:00,42.0,37.0,29.86,NNW,342,2.0,-999.0,83,-99.99,,,-99.99,,2013-02-13 22:11:00,
2013-02-13 17:21:00,42.0,37.0,29.86,NNW,342,2.0,-999.0,83,-99.99,,,-99.99,,2013-02-13 22:21:00,
2013-02-13 17:32:00,42.0,37.0,29.87,NNW,344,1.0,-999.0,83,-99.99,,,-99.99,,2013-02-13 22:32:00,
2013-02-13 17:42:00,42.0,37.0,29.87,NNW,344,1.0,-999.0,83,-99.99,,,-99.99,,2013-02-13 22:42:00,
2013-02-13 17:52:00,41.0,36.0,29.87,NNW,342,0.0,-999.0,83,-99.99,,,-99.99,,2013-02-13 22:52:00,
2013-02-13 18:01:00,41.0,37.0,29.89,NNW,336,0.0,-999.0,84,-99.99,,,-99.99,,2013-02-13 23:01:00,
2013-02-13 18:11:00,41.0,37.0,29.89,NW,321,0.0,-999.0,84,-99.99,,,-99.99,,2013-02-13 23:11:00,
2013-02-13 18:21:00,41.0,37.0,29.89,NW,321,0.0,-999.0,84,-99.99,,,-99.99,,2013-02-13 23:21:00,
2013-02-13 18:32:00,40.0,36.0,29.90,NW,321,0.0,-999.0,84,-99.99,,,-99.99,,2013-02-13 23:32:00,
2013-02-13 18:42:00,40.0,36.0,29.90,NW,321,0.0,-999.0,84,-99.99,,,-99.99,,2013-02-13 23:42:00,
2013-02-13 18:52:00,40.0,36.0,29.91,NW,321,0.0,-999.0,85,-99.99,,,-99.99,,2013-02-13 23:52:00,
2013-02-13 19:02:00,40.0,36.0,29.91,NW,323,0.0,-999.0,85,-99.99,,,-99.99,,2013-02-14 00:02:00,
2013-02-13 19:11:00,40.0,36.0,29.91,NW,323,0.0,-999.0,85,-99.99,,,-99.99,,2013-02-14 00:11:00,
2013-02-13 19:22:00,40.0,36.0,29.91,NW,323,0.0,-999.0,86,-99.99,,,-99.99,,2013-02-14 00:22:00,
2013-02-13 19:32:00,39.0,35.0,29.92,NW,323,0.0,-999.0,86,-99.99,,,-99.99,,2013-02-14 00:32:00,
2013-02-13 19:42:00,39.0,35.0,29.92,NW,323,0.0,-999.0,86,-99.99,,,-99.99,,2013-02-14 00:42:00,
2013-02-13 19:51:00,39.0,35.0,29.93,NW,323,0.0,-999.0,86,-99.99,,,-99.99,,2013-02-14 00:51:00,
2013-02-13 20:01:00,39.0,35.0,29.93,NW,323,0.0,-999.0,86,-99.99,,,-99.99,,2013-02-14 01:01:00,
2013-02-13 20:11:00,38.0,34.0,29.93,NW,323,0.0,-999.0,86,-99.99,,,-99.99,,2013-02-14 01:11:00,
2013-02-13 20:21:00,38.0,34.0,29.93,NW,323,0.0,-999.0,86,-99.99,,,-99.99,,2013-02-14 01:21:00,
2013-02-13 20:32:00,38.0,34.0,29.93,NW,323,0.0,-999.0,86,-99.99,,,-99.99,,2013-02-14 01:32:00,
2013-02-13 20:41:00,38.0,34.0,29.93,NW,323,0.0,-999.0,86,-99.99,,,-99.99,,2013-02-14 01:41:00,
2013-02-13 20:52:00,37.0,33.0,29.94,NW,323,0.0,-999.0,86,-99.99,,,-99.99,,2013-02-14 01:52:00,
2013-02-13 21:02:00,37.0,34.0,29.94,NW,323,0.0,-999.0,87,-99.99,,,-99.99,,2013-02-14 02:02:00,
2013-02-13 21:11:00,37.0,34.0,29.95,NW,323,0.0,-999.0,88,-99.99,,,-99.99,,2013-02-14 02:11:00,
2013-02-13 21:21:00,37.0,34.0,29.95,NW,323,0.0,-999.0,88,-99.99,,,-99.99,,2013-02-14 02:21:00,
2013-02-13 21:32:00,37.0,34.0,29.96,NW,323,0.0,-999.0,88,-99.99,,,-99.99,,2013-02-14 02:32:00,
2013-02-13 21:41:00,37.0,34.0,29.96,NW,323,0.0,-999.0,88,-99.99,,,-99.99,,2013-02-14 02:41:00,
2013-02-13 21:52:00,37.0,34.0,29.96,NW,323,0.0,-999.0,88,-99.99,,,-99.99,,2013-02-14 02:52:00,
2013-02-13 22:02:00,37.0,34.0,29.96,NW,323,0.0,-999.0,89,-99.99,,,-99.99,,2013-02-14 03:02:00,
2013-02-13 22:11:00,37.0,34.0,29.96,NW,323,0.0,-999.0,90,-99.99,,,-99.99,,2013-02-14 03:11:00,
2013-02-13 22:22:00,37.0,34.0,29.96,NW,323,0.0,-999.0,90,-99.99,,,-99.99,,2013-02-14 03:22:00,
2013-02-13 22:32:00,37.0,34.0,29.97,NW,323,0.0,-999.0,90,-99.99,,,-99.99,,2013-02-14 03:32:00,
2013-02-13 22:42:00,37.0,34.0,29.97,NW,323,0.0,-999.0,90,-99.99,,,-99.99,,2013-02-14 03:42:00,
2013-02-13 22:52:00,37.0,34.0,29.97,NW,323,0.0,-999.0,90,-99.99,,,-99.99,,2013-02-14 03:52:00,
2013-02-13 23:01:00,37.0,34.0,29.97,NW,323,0.0,-999.0,90,-99.99,,,-99.99,,2013-02-14 04:01:00,
2013-02-13 23:12:00,37.0,34.0,29.97,NW,323,0.0,-999.0,90,-99.99,,,-99.99,,2013-02-14 04:12:00,
2013-02-13 23:21:00,37.0,34.0,29.97,NW,323,0.0,-999.0,90,-99.99,,,-99.99,,2013-02-14 04:21:00,
2013-02-13 23:32:00,36.0,33.0,29.98,NW,323,0.0,-999.0,89,-99.99,,,-99.99,,2013-02-14 04:32:00,
2013-02-13 23:42:00,36.0,33.0,29.98,NW,323,0.0,-999.0,89,-99.99,,,-99.99,,2013-02-14 04:42:00,
2013-02-13 23:52:00,35.0,32.0,29.99,NW,323,0.0,-999.0,89,-99.99,,,-99.99,,2013-02-14 04:52:00,